Location: Ford County Road and Bridge Department
(37.7686°N, 99.9762°W)
Time: 22:01:09
(UTC+00:00)

Cosmos 2322 - Pass Details

Date: 18 January 2020
Orbit: 842 x 853 km, 71.0° (Epoch: 19 February)

Event Time Altitude Azimuth Distance (km) Brightness Sun altitude
Rises 00:15:55 0° 341° (NNW) 3,404 6.8 -6.1°
Reaches altitude 10° 00:18:24 10° 345° (NNW) 2,466 6.1 -6.6°
Maximum altitude 00:24:00 62° 65° (ENE) 949 3.7 -7.6°
Drops below altitude 10° 00:29:35 10° 146° (SE) 2,457 6.0 -8.7°
Sets 00:32:03 0° 150° (SSE) 3,390 6.7 -9.1°
